Location: *
(49.9853°N, 3.5569°E)
Time: 13:29:40
(UTC+00:00)

Cosmos 407 Rocket - Pass Details

Date: 22 September 2019
Orbit: 744 x 786 km, 74.0° (Epoch: 14 October)

Event Time Altitude Azimuth Distance (km) Brightness Sun altitude
Rises 19:01:10 0° 333° (NNW) 3,204 7.4 -13.0°
Reaches altitude 10° 19:03:33 10° 330° (NNW) 2,273 6.6 -13.3°
Maximum altitude 19:08:37 61° 252° (WSW) 848 4.0 -14.1°
Drops below altitude 10° 19:13:38 10° 173° (S) 2,256 5.7 -14.9°
Enters shadow 19:15:50 - 170° (S) 3,114 6.4 -15.2°
